星链-4591 (STARLINK-4591 )

导读

STARLINK-4591是美国于2022年8月28日发射的星链系列卫星,隶属于SpaceX公司主导的星链卫星互联网项目。星链项目旨在构建全球卫星互联网星座,为全球偏远地区、海洋等信号覆盖薄弱区域提供高速宽带服务,该卫星入轨后进一步扩充了星链星座的规模,提升了星座的服务覆盖能力与稳定性。

基本信息
目录编号:
53607
目录名称:
STARLINK-4591
国际标识:
2022-104V
轨道中心:
EARTH
卫星名称:
星链-4591
卫星全名:
星链-4591 (STARLINK-4591 )
卫星状态:
在轨 (已飞行1476 天)
发射日期:
2022-08-28 UTC
国别 :
美国 (US)
星等 :
--
该卫星已列入 空间交会检测服务 Space Conjunction Data Service (SCDS) ,当前飞行风险评估等级: 高风险
轨道信息
数据来源 国际轨道数据 AOE轨道数据
星历时间 2026-09-12T07:38:08+0800
10小时前
查看轨道信息
2026-09-06T22:00:00+0800
5天前
查看轨道信息
半长轴 6840.891km 6840.813km
偏心率 0.0001111 0.0001155
轨道倾角 53.159° 53.159°
近地点辐角 74.680° 82.633°
升交点赤经 107.163° 132.412°
平近点角 285.433° 304.059°
近地点 461.993km 461.885km
远地点 463.515km 463.467km
周期 93.849分钟 93.847分钟
每日圈数 15.343832 15.344092
详细信息
固有亮度:
5
最大亮度:
2.5
卫星平台:
Starlink v1.5
覆盖范围:
全球
运营商:
太空探索技术公司
运营商所在国:
美国
制造商(研发单位):
太空探索技术公司
制造商所在国:
美国
使用方式:
暂无
卫星简介
星链(Starlink)计划是由太空探索技术公司(SpaceX)提出的一个巨型低轨卫星互联网星座项目,计划在2019年至2024年间在太空搭建由约1.2万颗卫星组成的“星链”网络,其中1584颗将部署在地球上空550千米处的近地轨道,并从2020年开始工作。该卫星仍在工作。
2D轨道图
3D轨道图
轨道高度分析图
轨道倾角分析图
轨道综合分析图
查看轨道综合分析图
交会数据列表
事件ID 空间交会对象 最接近时刻(TCA) 交会距离 交会风险概率(CRP) 交会风险指数(CRI) 操作
CDM_260913-234905-360706-243222
2026-09-13T
23:49:08+0000
0.604 km
远距离
8.514951E-5 中风险 0.74
CDM_260914-082405-360706-937621
2026-09-14T
08:24:33+0000
0.643 km
远距离
6.919324E-5 中风险 0.72
CDM_260914-144005-360706-243221
2026-09-14T
14:40:09+0000
0.816 km
远距离
3.415777E-5 中风险 0.66
CDM_260913-021405-360706-077422
2026-09-13T
02:14:39+0000
1.209 km
极远距离
1.379206E-5 中风险 0.58
CDM_260913-234805-360706-937621
2026-09-13T
23:48:42+0000
1.187 km
极远距离
9.184415E-6 低风险 0.54
CDM_260913-221505-360706-243221
2026-09-13T
22:15:20+0000
1.450 km
极远距离
4.823935E-6 低风险 0.49
CDM_260914-130605-360706-243221
2026-09-14T
13:06:22+0000
2.410 km
极远距离
1.280118E-6 低风险 0.37
CDM_260914-012205-360706-243222
2026-09-14T
01:22:55+0000
2.508 km
极远距离
1.191921E-6 低风险 0.37
CDM_260914-161305-360706-243221
2026-09-14T
16:13:57+0000
2.543 km
极远距离
1.166011E-6 低风险 0.36
CDM_260913-132305-360706-809821
2026-09-13T
13:23:15+0000
2.072 km
极远距离
1.066663E-6 低风险 0.36
与全量物体交会距离演化趋势
与全量物体交会风险概率演化趋势